Time,TemperatureF,DewpointF,PressureIn,WindDirection,WindDirectionDegrees,WindSpeedMPH,WindSpeedGustMPH,Humidity,HourlyPrecipIn,Conditions,Clouds,dailyrainin,SoftwareType,DateUTC
2013-02-19 00:02:00,38.0,26.0,30.22,North,0,0.0,4.0,62,0.00,,,0.02,,2013-02-19 05:02:00,
2013-02-19 00:13:00,38.0,26.0,30.22,North,0,0.0,4.0,62,0.00,,,0.02,,2013-02-19 05:13:00,
2013-02-19 00:22:00,38.0,26.0,30.22,North,0,0.0,4.0,62,0.00,,,0.02,,2013-02-19 05:22:00,
2013-02-19 00:32:00,38.0,27.0,30.19,North,0,0.0,3.0,64,0.00,,,0.02,,2013-02-19 05:32:00,
2013-02-19 00:43:00,38.0,27.0,30.19,North,0,0.0,3.0,64,0.00,,,0.02,,2013-02-19 05:43:00,
2013-02-19 00:52:00,38.0,27.0,30.19,North,0,0.0,3.0,64,0.00,,,0.02,,2013-02-19 05:52:00,
2013-02-19 01:03:00,37.0,27.0,30.19,North,0,0.0,3.0,66,0.00,,,0.02,,2013-02-19 06:03:00,
2013-02-19 01:12:00,37.0,27.0,30.19,North,0,0.0,3.0,66,0.00,,,0.02,,2013-02-19 06:12:00,
2013-02-19 01:22:00,37.0,27.0,30.19,North,0,0.0,3.0,66,0.00,,,0.02,,2013-02-19 06:22:00,
2013-02-19 01:32:00,36.0,26.0,30.19,North,0,0.0,0.0,67,0.00,,,0.02,,2013-02-19 06:32:00,
2013-02-19 01:42:00,36.0,26.0,30.19,North,0,0.0,0.0,67,0.00,,,0.02,,2013-02-19 06:42:00,
2013-02-19 01:52:00,36.0,26.0,30.19,North,0,0.0,0.0,67,0.00,,,0.02,,2013-02-19 06:52:00,
2013-02-19 02:02:00,34.0,25.0,30.18,North,0,0.0,0.0,69,0.00,,,0.02,,2013-02-19 07:02:00,
2013-02-19 02:11:00,34.0,25.0,30.18,North,0,0.0,0.0,69,0.00,,,0.02,,2013-02-19 07:11:00,
2013-02-19 02:22:00,34.0,25.0,30.18,North,0,0.0,0.0,69,0.00,,,0.02,,2013-02-19 07:22:00,
2013-02-19 02:32:00,33.0,25.0,30.17,North,0,0.0,0.0,72,0.00,,,0.02,,2013-02-19 07:32:00,
2013-02-19 02:42:00,33.0,25.0,30.17,North,0,0.0,0.0,72,0.00,,,0.02,,2013-02-19 07:42:00,
2013-02-19 02:52:00,33.0,26.0,30.17,North,0,0.0,0.0,74,0.00,,,0.02,,2013-02-19 07:52:00,
2013-02-19 03:02:00,32.0,25.0,30.15,North,0,0.0,0.0,76,0.00,,,0.02,,2013-02-19 08:02:00,
2013-02-19 03:11:00,32.0,25.0,30.15,North,0,0.0,0.0,76,0.00,,,0.02,,2013-02-19 08:11:00,
2013-02-19 03:21:00,32.0,26.0,30.14,North,0,0.0,0.0,77,0.00,,,0.02,,2013-02-19 08:21:00,
2013-02-19 03:32:00,32.0,26.0,30.14,North,0,0.0,1.0,78,0.00,,,0.02,,2013-02-19 08:32:00,
2013-02-19 03:42:00,32.0,26.0,30.14,North,0,0.0,1.0,78,0.00,,,0.02,,2013-02-19 08:42:00,
2013-02-19 03:52:00,32.0,26.0,30.14,North,0,0.0,1.0,78,0.00,,,0.02,,2013-02-19 08:52:00,
2013-02-19 04:02:00,32.0,26.0,30.11,North,0,0.0,0.0,78,0.00,,,0.02,,2013-02-19 09:02:00,
2013-02-19 04:11:00,32.0,26.0,30.11,North,0,0.0,0.0,78,0.00,,,0.02,,2013-02-19 09:11:00,
2013-02-19 04:22:00,32.0,26.0,30.11,North,0,0.0,0.0,78,0.00,,,0.02,,2013-02-19 09:22:00,
2013-02-19 04:32:00,31.0,25.0,30.10,North,0,0.0,1.0,78,0.00,,,0.02,,2013-02-19 09:32:00,
2013-02-19 04:42:00,31.0,25.0,30.10,North,0,0.0,1.0,78,0.00,,,0.02,,2013-02-19 09:42:00,
2013-02-19 04:52:00,31.0,25.0,30.10,North,0,0.0,1.0,78,0.00,,,0.02,,2013-02-19 09:52:00,
2013-02-19 05:02:00,31.0,25.0,30.10,North,0,0.0,0.0,79,0.00,,,0.02,,2013-02-19 10:02:00,
2013-02-19 05:11:00,31.0,25.0,30.10,North,0,0.0,0.0,79,0.00,,,0.02,,2013-02-19 10:11:00,
2013-02-19 05:22:00,31.0,25.0,30.10,North,0,0.0,0.0,79,0.00,,,0.02,,2013-02-19 10:22:00,
2013-02-19 05:32:00,31.0,26.0,30.10,North,0,0.0,3.0,82,0.00,,,0.02,,2013-02-19 10:32:00,
2013-02-19 05:42:00,31.0,26.0,30.10,North,0,0.0,3.0,82,0.00,,,0.02,,2013-02-19 10:42:00,
2013-02-19 05:52:00,31.0,26.0,30.10,North,0,0.0,3.0,82,0.00,,,0.02,,2013-02-19 10:52:00,
2013-02-19 06:01:00,31.0,26.0,30.08,North,0,0.0,1.0,83,0.00,,,0.02,,2013-02-19 11:01:00,
2013-02-19 06:11:00,31.0,26.0,30.08,North,0,0.0,1.0,83,0.00,,,0.02,,2013-02-19 11:11:00,
2013-02-19 06:22:00,31.0,26.0,30.08,North,0,0.0,1.0,83,0.00,,,0.02,,2013-02-19 11:22:00,
2013-02-19 06:32:00,32.0,27.0,30.08,North,0,0.0,1.0,83,0.00,,,0.02,,2013-02-19 11:32:00,
2013-02-19 06:42:00,32.0,27.0,30.08,North,0,0.0,1.0,83,0.00,,,0.02,,2013-02-19 11:42:00,
2013-02-19 06:52:00,32.0,27.0,30.08,North,0,0.0,1.0,83,0.00,,,0.02,,2013-02-19 11:52:00,
2013-02-19 07:02:00,34.0,28.0,30.06,North,0,0.0,1.0,79,0.00,,,0.02,,2013-02-19 12:02:00,
2013-02-19 07:12:00,34.0,28.0,30.06,North,0,0.0,1.0,79,0.00,,,0.02,,2013-02-19 12:12:00,
2013-02-19 07:22:00,34.0,28.0,30.06,North,0,0.0,1.0,79,0.00,,,0.02,,2013-02-19 12:22:00,
2013-02-19 07:32:00,35.0,29.0,30.07,North,0,0.0,3.0,78,0.00,,,0.02,,2013-02-19 12:32:00,
2013-02-19 07:42:00,35.0,29.0,30.07,North,0,0.0,3.0,78,0.00,,,0.02,,2013-02-19 12:42:00,
2013-02-19 07:53:00,35.0,29.0,30.07,North,0,0.0,3.0,78,0.00,,,0.02,,2013-02-19 12:53:00,
2013-02-19 08:02:00,36.0,29.0,30.06,SE,138,1.0,7.0,77,0.00,,,0.02,,2013-02-19 13:02:00,
2013-02-19 08:11:00,36.0,29.0,30.06,SE,138,1.0,7.0,77,0.00,,,0.02,,2013-02-19 13:11:00,
2013-02-19 08:22:00,36.0,29.0,30.06,SE,138,1.0,7.0,77,0.00,,,0.02,,2013-02-19 13:22:00,
2013-02-19 08:32:00,38.0,32.0,30.05,North,0,0.0,4.0,78,0.00,,,0.02,,2013-02-19 13:32:00,
2013-02-19 08:42:00,38.0,32.0,30.05,North,0,0.0,4.0,78,0.00,,,0.02,,2013-02-19 13:42:00,
2013-02-19 08:52:00,38.0,32.0,30.05,North,0,0.0,4.0,78,0.00,,,0.02,,2013-02-19 13:52:00,
2013-02-19 09:02:00,39.0,33.0,30.03,South,176,1.0,4.0,78,0.00,,,0.02,,2013-02-19 14:02:00,
2013-02-19 09:12:00,39.0,33.0,30.03,South,176,1.0,4.0,78,0.00,,,0.02,,2013-02-19 14:12:00,
2013-02-19 09:22:00,39.0,33.0,30.03,South,176,1.0,4.0,78,0.00,,,0.02,,2013-02-19 14:22:00,
2013-02-19 09:33:00,40.0,35.0,30.03,North,0,0.0,3.0,81,0.00,,,0.02,,2013-02-19 14:33:00,
2013-02-19 09:42:00,40.0,35.0,30.03,North,0,0.0,3.0,81,0.00,,,0.02,,2013-02-19 14:42:00,
2013-02-19 09:52:00,40.0,35.0,30.03,North,0,0.0,3.0,81,0.00,,,0.02,,2013-02-19 14:52:00,
2013-02-19 10:02:00,39.0,35.0,30.05,North,0,0.0,2.0,87,0.02,,,0.04,,2013-02-19 15:02:00,
2013-02-19 10:11:00,39.0,35.0,30.05,North,0,0.0,2.0,87,0.02,,,0.04,,2013-02-19 15:11:00,
2013-02-19 10:22:00,39.0,35.0,30.05,North,0,0.0,2.0,87,0.02,,,0.04,,2013-02-19 15:22:00,
2013-02-19 10:32:00,39.0,36.0,30.03,North,0,0.0,2.0,89,0.07,,,0.08,,2013-02-19 15:32:00,
2013-02-19 10:42:00,39.0,36.0,30.03,North,0,0.0,2.0,89,0.07,,,0.08,,2013-02-19 15:42:00,
2013-02-19 10:52:00,39.0,36.0,30.03,North,0,0.0,2.0,89,0.07,,,0.08,,2013-02-19 15:52:00,
2013-02-19 11:02:00,39.0,37.0,30.01,North,0,0.0,2.0,92,0.08,,,0.11,,2013-02-19 16:02:00,
2013-02-19 11:11:00,39.0,37.0,30.01,North,0,0.0,2.0,92,0.08,,,0.11,,2013-02-19 16:11:00,
2013-02-19 11:22:00,39.0,37.0,30.01,North,0,0.0,2.0,92,0.08,,,0.11,,2013-02-19 16:22:00,
2013-02-19 11:32:00,40.0,38.0,29.99,North,0,0.0,5.0,94,0.05,,,0.12,,2013-02-19 16:32:00,
2013-02-19 11:42:00,40.0,38.0,29.99,North,0,0.0,5.0,94,0.05,,,0.12,,2013-02-19 16:42:00,
2013-02-19 11:52:00,40.0,38.0,29.99,North,0,0.0,5.0,94,0.05,,,0.12,,2013-02-19 16:52:00,
2013-02-19 12:01:00,42.0,41.0,29.97,South,170,3.0,6.0,95,0.03,,,0.13,,2013-02-19 17:01:00,
2013-02-19 12:11:00,42.0,41.0,29.97,South,170,3.0,6.0,95,0.03,,,0.13,,2013-02-19 17:11:00,
2013-02-19 12:21:00,42.0,41.0,29.97,South,170,3.0,6.0,95,0.03,,,0.13,,2013-02-19 17:21:00,
2013-02-19 12:32:00,44.0,43.0,29.94,SSE,165,2.0,6.0,96,0.01,,,0.13,,2013-02-19 17:32:00,
2013-02-19 12:42:00,44.0,43.0,29.94,SSE,165,2.0,6.0,96,0.01,,,0.13,,2013-02-19 17:42:00,
2013-02-19 12:52:00,44.0,43.0,29.94,SSE,165,2.0,6.0,96,0.01,,,0.13,,2013-02-19 17:52:00,
2013-02-19 13:02:00,45.0,44.0,29.91,SSE,149,4.0,13.0,96,0.02,,,0.15,,2013-02-19 18:02:00,
2013-02-19 13:11:00,45.0,44.0,29.91,SSE,149,4.0,13.0,96,0.02,,,0.15,,2013-02-19 18:11:00,
2013-02-19 13:21:00,45.0,44.0,29.91,SSE,149,4.0,13.0,96,0.02,,,0.15,,2013-02-19 18:21:00,
2013-02-19 13:32:00,47.0,46.0,29.89,North,0,0.0,6.0,97,0.05,,,0.18,,2013-02-19 18:32:00,
2013-02-19 13:42:00,47.0,46.0,29.89,North,0,0.0,6.0,97,0.05,,,0.18,,2013-02-19 18:42:00,
2013-02-19 13:51:00,47.0,46.0,29.89,North,0,0.0,6.0,97,0.05,,,0.18,,2013-02-19 18:51:00,
2013-02-19 14:01:00,47.0,46.0,29.88,SSE,152,1.0,7.0,97,0.12,,,0.27,,2013-02-19 19:01:00,
2013-02-19 14:11:00,47.0,46.0,29.88,SSE,152,1.0,7.0,97,0.12,,,0.27,,2013-02-19 19:11:00,
2013-02-19 14:21:00,47.0,46.0,29.87,ESE,123,1.0,5.0,97,0.12,,,0.28,,2013-02-19 19:21:00,
2013-02-19 14:32:00,47.0,46.0,29.86,SSE,153,1.0,10.0,97,0.11,,,0.29,,2013-02-19 19:32:00,
2013-02-19 14:42:00,47.0,46.0,29.86,SSE,153,1.0,10.0,97,0.11,,,0.29,,2013-02-19 19:42:00,
2013-02-19 14:51:00,47.0,46.0,29.86,SSE,153,1.0,10.0,97,0.11,,,0.29,,2013-02-19 19:51:00,
2013-02-19 15:02:00,47.0,46.0,29.84,South,191,2.0,14.0,97,0.02,,,0.29,,2013-02-19 20:02:00,
2013-02-19 15:12:00,47.0,46.0,29.84,South,191,2.0,14.0,97,0.02,,,0.29,,2013-02-19 20:12:00,
2013-02-19 15:22:00,48.0,47.0,29.84,South,174,1.0,17.0,97,0.01,,,0.29,,2013-02-19 20:22:00,
2013-02-19 15:32:00,48.0,47.0,29.83,WSW,248,1.0,12.0,96,0.00,,,0.29,,2013-02-19 20:32:00,
2013-02-19 15:42:00,48.0,47.0,29.83,WSW,248,1.0,12.0,96,0.00,,,0.29,,2013-02-19 20:42:00,
2013-02-19 15:52:00,48.0,47.0,29.83,WSW,248,1.0,12.0,96,0.00,,,0.29,,2013-02-19 20:52:00,
2013-02-19 16:02:00,48.0,47.0,29.83,North,0,0.0,6.0,96,0.00,,,0.29,,2013-02-19 21:02:00,
2013-02-19 16:11:00,48.0,47.0,29.83,North,0,0.0,6.0,96,0.00,,,0.29,,2013-02-19 21:11:00,
2013-02-19 16:21:00,48.0,47.0,29.83,North,0,0.0,6.0,96,0.00,,,0.29,,2013-02-19 21:21:00,
2013-02-19 16:32:00,48.0,47.0,29.83,North,0,0.0,11.0,95,0.00,,,0.29,,2013-02-19 21:32:00,
2013-02-19 16:42:00,48.0,47.0,29.83,North,0,0.0,11.0,95,0.00,,,0.29,,2013-02-19 21:42:00,
2013-02-19 16:52:00,48.0,47.0,29.83,North,0,0.0,11.0,95,0.00,,,0.29,,2013-02-19 21:52:00,
2013-02-19 17:02:00,47.0,45.0,29.83,North,0,0.0,5.0,94,0.00,,,0.29,,2013-02-19 22:02:00,
2013-02-19 17:11:00,47.0,45.0,29.83,North,0,0.0,5.0,94,0.00,,,0.29,,2013-02-19 22:11:00,
2013-02-19 17:22:00,47.0,45.0,29.83,North,0,0.0,5.0,94,0.00,,,0.29,,2013-02-19 22:22:00,
2013-02-19 17:32:00,47.0,45.0,29.84,North,0,0.0,6.0,93,0.00,,,0.29,,2013-02-19 22:32:00,
2013-02-19 17:42:00,47.0,45.0,29.84,North,0,0.0,6.0,93,0.00,,,0.29,,2013-02-19 22:42:00,
2013-02-19 17:52:00,47.0,45.0,29.84,North,0,0.0,6.0,93,0.00,,,0.29,,2013-02-19 22:52:00,
2013-02-19 18:01:00,47.0,45.0,29.85,North,0,0.0,3.0,92,0.00,,,0.29,,2013-02-19 23:01:00,
2013-02-19 18:11:00,47.0,45.0,29.85,North,0,0.0,3.0,92,0.00,,,0.29,,2013-02-19 23:11:00,
2013-02-19 18:21:00,47.0,45.0,29.85,North,0,0.0,3.0,92,0.00,,,0.29,,2013-02-19 23:21:00,
2013-02-19 18:32:00,47.0,45.0,29.86,North,0,0.0,3.0,92,0.00,,,0.29,,2013-02-19 23:32:00,
2013-02-19 18:42:00,47.0,45.0,29.86,North,0,0.0,3.0,92,0.00,,,0.29,,2013-02-19 23:42:00,
2013-02-19 18:52:00,47.0,45.0,29.87,North,0,0.0,3.0,92,0.00,,,0.29,,2013-02-19 23:52:00,
2013-02-19 19:01:00,46.0,44.0,29.88,North,0,0.0,1.0,91,0.00,,,0.29,,2013-02-20 00:01:00,
2013-02-19 19:11:00,46.0,44.0,29.88,North,0,0.0,1.0,91,0.00,,,0.29,,2013-02-20 00:11:00,
2013-02-19 19:21:00,46.0,44.0,29.88,North,0,0.0,1.0,91,0.00,,,0.29,,2013-02-20 00:21:00,
2013-02-19 19:32:00,45.0,43.0,29.89,North,0,0.0,2.0,92,0.00,,,0.29,,2013-02-20 00:32:00,
2013-02-19 19:42:00,45.0,43.0,29.89,North,0,0.0,2.0,92,0.00,,,0.29,,2013-02-20 00:42:00,
2013-02-19 19:52:00,45.0,43.0,29.89,North,0,0.0,2.0,92,0.00,,,0.29,,2013-02-20 00:52:00,
2013-02-19 20:02:00,44.0,42.0,29.89,North,0,0.0,1.0,92,0.00,,,0.29,,2013-02-20 01:02:00,
2013-02-19 20:11:00,44.0,42.0,29.89,North,0,0.0,1.0,92,0.00,,,0.29,,2013-02-20 01:11:00,
2013-02-19 20:22:00,44.0,42.0,29.89,North,0,0.0,1.0,92,0.00,,,0.29,,2013-02-20 01:22:00,
2013-02-19 20:32:00,44.0,42.0,29.91,SSW,194,1.0,4.0,92,0.00,,,0.29,,2013-02-20 01:32:00,
2013-02-19 20:42:00,44.0,42.0,29.91,SSW,194,1.0,4.0,92,0.00,,,0.29,,2013-02-20 01:42:00,
2013-02-19 20:52:00,43.0,41.0,29.91,North,0,0.0,3.0,92,0.00,,,0.29,,2013-02-20 01:52:00,
2013-02-19 21:02:00,43.0,41.0,29.91,North,0,0.0,0.0,92,0.00,,,0.29,,2013-02-20 02:02:00,
2013-02-19 21:11:00,43.0,41.0,29.91,North,0,0.0,0.0,92,0.00,,,0.29,,2013-02-20 02:11:00,
2013-02-19 21:21:00,43.0,41.0,29.91,North,0,0.0,1.0,92,0.00,,,0.29,,2013-02-20 02:21:00,
2013-02-19 21:32:00,42.0,40.0,29.91,North,0,0.0,0.0,92,0.00,,,0.29,,2013-02-20 02:32:00,
2013-02-19 21:42:00,42.0,40.0,29.91,North,0,0.0,0.0,92,0.00,,,0.29,,2013-02-20 02:42:00,
2013-02-19 21:52:00,42.0,40.0,29.91,North,0,0.0,0.0,92,0.00,,,0.29,,2013-02-20 02:52:00,
2013-02-19 22:02:00,41.0,39.0,29.92,North,0,0.0,0.0,92,0.00,,,0.29,,2013-02-20 03:02:00,
2013-02-19 22:12:00,41.0,39.0,29.92,North,0,0.0,0.0,92,0.00,,,0.29,,2013-02-20 03:12:00,
2013-02-19 22:22:00,41.0,39.0,29.92,North,0,0.0,0.0,92,0.00,,,0.29,,2013-02-20 03:22:00,
2013-02-19 22:32:00,41.0,39.0,29.92,North,0,0.0,0.0,92,0.00,,,0.29,,2013-02-20 03:32:00,
2013-02-19 22:42:00,41.0,39.0,29.92,North,0,0.0,0.0,92,0.00,,,0.29,,2013-02-20 03:42:00,
2013-02-19 22:52:00,41.0,39.0,29.92,North,0,0.0,0.0,92,0.00,,,0.29,,2013-02-20 03:52:00,
2013-02-19 23:01:00,39.0,37.0,29.92,North,0,0.0,0.0,92,0.00,,,0.29,,2013-02-20 04:01:00,
2013-02-19 23:11:00,39.0,37.0,29.92,North,0,0.0,0.0,92,0.00,,,0.29,,2013-02-20 04:11:00,
2013-02-19 23:21:00,39.0,37.0,29.92,North,0,0.0,0.0,92,0.00,,,0.29,,2013-02-20 04:21:00,
2013-02-19 23:32:00,38.0,36.0,29.92,North,0,0.0,0.0,92,0.00,,,0.29,,2013-02-20 04:32:00,
2013-02-19 23:42:00,38.0,36.0,29.92,North,0,0.0,0.0,92,0.00,,,0.29,,2013-02-20 04:42:00,
2013-02-19 23:52:00,39.0,37.0,29.92,North,0,0.0,0.0,93,0.00,,,0.29,,2013-02-20 04:52:00,